Vorticity
3 4 4 5 6 6 6 6 5 5 5 6 6 7 8 10 11 13 16 18 20 20 20 20 18 17 16 15 14 14 13 13 12 12 11 11 11 11 12 13 14 15 16 18 20 22 24 25 27 28 29 29 30 30 30 30 30 30 30 30 30 30 29 28 27 26 24 23 22
2 3 4 4 5 6 6 6 6 5 5 5 5 6 6 7 7 8 10 12 14 16 17 17 17 16 15 14 14 13 12 12 12 11 11 10 11 12 12 13 14 15 15 16 17 18 18 19 20 22 23 24 25 26 27 27 28 30 30 31 31 32 32 32 31 30 28 27 26
2 2 3 4 4 5 5 6 6 6 5 5 4 4 5 5 6 6 6 7 9 10 12 13 14 14 14 13 13 13 12 12 12 12 11 11 12 12 13 14 14 15 15 15 15 15 15 15 16 17 18 19 20 21 22 24 25 27 28 29 30 31 32 33 32 32 32 31 29
2 2 2 3 4 4 5 5 6 6 6 5 5 4 4 4 4 5 5 6 6 6 7 9 10 11 12 12 12 12 12 12 12 12 12 12 12 12 13 13 13 13 13 13 12 12 12 13 13 14 15 16 17 18 19 20 22 23 25 25 27 28 30 31 32 32 32 33 31
4 4 3 3 3 4 4 5 5 6 6 6 5 5 4 4 4 4 4 4 5 5 6 6 7 8 9 10 10 11 11 11 11 12 12 12 12 12 12 12 12 12 11 11 11 11 11 12 12 13 13 14 15 15 16 17 18 19 20 21 22 24 25 27 28 30 31 32 32
8 7 6 5 4 4 4 4 5 5 6 6 6 6 5 4 4 4 4 4 4 4 5 5 6 6 7 7 8 9 9 10 10 10 10 10 10 11 11 11 10 10 10 10 10 10 10 11 11 12 12 13 13 13 13 13 14 14 15 16 17 19 21 23 24 26 28 30 31
12 11 10 9 8 7 7 6 6 6 6 6 6 6 6 5 5 4 4 3 4 4 4 5 5 5 6 6 6 7 7 8 8 8 8 9 9 9 9 9 9 9 9 9 9 9 9 9 10 10 10 11 11 12 11 11 11 11 12 12 13 15 17 19 21 23 24 26 28
16 14 13 12 11 10 10 9 8 8 7 7 6 6 6 6 5 5 4 4 4 4 4 4 5 5 5 6 6 6 6 7 7 7 7 7 8 8 8 8 8 8 8 8 8 8 8 8 8 8 9 9 10 10 10 10 10 10 10 10 11 13 14 17 19 21 22 24 26
16 16 15 14 14 13 13 12 11 10 9 8 8 7 6 6 6 6 6 5 4 4 4 4 4 5 5 5 6 6 6 6 6 6 6 7 7 7 7 7 7 7 7 7 7 7 7 7 7 7 7 7 8 9 10 10 10 10 10 10 10 11 13 15 17 19 21 23 24
15 15 15 15 15 14 14 14 14 13 12 11 10 9 8 7 7 6 6 6 5 5 5 4 4 4 5 5 6 6 6 6 6 6 6 6 6 6 7 7 7 6 6 6 7 7 7 6 6 6 6 6 7 7 8 9 10 10 10 10 10 10 12 13 16 18 20 22 24
17 16 16 16 15 15 14 14 15 14 14 13 13 12 11 10 9 8 7 7 7 6 6 5 5 5 5 5 6 6 6 6 6 6 6 6 6 6 6 6 6 6 6 6 6 6 6 6 6 6 6 5 6 6 7 8 8 9 9 10 9 10 11 12 15 18 21 23 24
21 20 20 19 18 17 17 16 16 16 15 15 14 14 13 13 11 10 9 9 8 8 7 6 6 6 5 5 6 6 6 6 6 6 6 6 6 6 6 6 6 6 6 6 6 6 6 6 6 6 6 6 6 6 6 6 7 8 9 9 9 9 10 11 14 17 21 24 25
23 23 23 22 22 21 20 19 19 18 17 17 16 16 15 15 14 13 12 11 10 10 9 8 7 7 6 6 6 6 6 6 6 6 6 6 6 6 6 6 6 6 6 6 6 6 6 6 6 6 6 6 6 6 6 6 6 7 8 8 8 8 9 10 12 16 20 24 26
22 22 22 23 23 23 22 22 21 21 20 20 19 18 18 17 16 15 14 13 13 12 11 10 9 8 8 7 7 6 6 6 6 6 6 6 6 6 6 6 6 6 6 6 6 6 6 6 6 7 7 7 6 6 6 6 6 6 7 7 8 8 8 9 11 15 20 24 27
19 19 20 20 21 22 22 22 22 22 22 22 22 21 20 20 19 18 16 16 15 14 13 12 12 11 10 9 8 8 7 7 7 7 7 7 6 6 6 6 6 6 6 6 6 6 6 6 6 7 7 7 7 7 7 7 6 6 6 7 7 8 8 9 10 14 19 24 27
16 17 17 18 19 19 20 20 20 21 21 22 22 22 22 22 21 20 19 18 17 16 14 14 13 12 12 11 10 10 9 8 8 7 7 7 7 7 7 6 6 6 6 6 6 6 7 7 7 7 7 7 7 7 7 7 7 7 7 7 7 7 8 8 10 13 18 24 27
16 16 16 17 17 18 18 18 19 19 19 20 21 21 22 23 23 22 22 21 20 18 17 16 14 14 13 13 12 11 10 10 9 9 8 8 8 7 7 7 7 7 7 7 7 7 7 7 7 7 7 7 8 8 8 8 8 7 7 7 7 7 8 8 10 13 17 24 28
16 16 16 17 17 17 17 18 18 18 18 18 19 19 20 21 22 22 23 23 22 21 19 18 17 15 14 14 13 13 12 12 11 11 10 9 9 8 8 8 8 8 7 7 7 7 7 7 7 7 8 8 8 8 8 8 8 8 7 7 7 7 8 8 9 12 17 23 28
17 17 17 17 17 17 17 18 18 18 18 18 18 18 18 19 20 21 22 22 23 23 22 21 19 18 16 15 14 13 13 12 12 12 12 11 10 10 9 9 9 9 8 8 8 8 8 8 8 8 8 8 8 9 9 9 9 8 8 7 7 8 8 8 9 12 17 24 30
17 17 17 17 18 18 18 18 18 18 18 18 18 18 18 18 19 19 20 21 22 22 23 23 22 21 19 17 16 15 14 13 13 13 13 13 12 11 11 11 11 10 10 9 8 8 9 9 9 9 8 8 9 9 9 9 9 8 8 8 8 8 8 8 8 12 17 25 31
16 16 17 17 18 18 18 19 19 19 19 19 19 19 18 18 18 19 19 20 20 21 22 23 23 22 22 20 18 17 15 14 13 13 13 13 13 13 13 12 12 12 11 10 9 9 9 10 9 9 9 9 9 9 9 9 9 9 8 8 8 8 8 7 8 12 19 27 32
15 15 16 17 17 18 18 19 20 20 20 20 20 20 20 20 19 19 19 19 19 20 21 22 22 23 23 22 21 19 17 15 14 13 13 13 13 13 14 13 13 12 12 11 10 10 10 10 10 10 9 9 9 9 9 10 9 9 8 8 8 8 8 7 9 13 21 30 34
14 14 15 16 16 17 18 19 19 20 21 21 21 21 21 21 21 20 20 20 20 20 20 20 21 22 22 23 22 21 20 18 16 14 13 12 12 13 14 14 13 13 12 12 11 10 10 11 11 11 10 10 10 10 10 10 10 9 9 8 8 8 7 7 9 15 24 33 36
13 13 14 15 16 16 17 18 19 19 20 21 22 22 22 22 22 22 21 21 21 20 20 20 20 21 21 22 22 22 22 20 18 16 14 12 12 12 13 14 14 13 13 13 12 12 12 12 12 12 12 11 11 11 11 11 10 10 9 8 8 8 8 7 10 18 27 36 38
12 12 13 14 15 16 16 17 18 19 20 20 21 22 22 23 23 23 22 22 22 22 21 21 21 20 21 21 22 22 22 22 20 18 16 13 11 11 12 14 14 14 13 14 13 13 13 13 13 13 12 12 12 12 11 11 10 10 9 9 9 8 8 7 11 20 31 40 41
11 12 13 13 14 15 16 16 17 18 19 20 21 22 22 23 23 23 23 23 23 23 23 22 22 22 21 21 21 21 22 22 22 20 18 14 12 11 12 13 13 13 13 14 14 14 13 13 13 13 12 12 12 11 11 11 10 10 9 9 9 9 8 7 12 22 34 44 44
11 11 12 13 14 14 15 16 16 17 18 19 20 21 22 23 23 23 23 23 23 24 24 24 24 23 22 22 21 21 21 22 22 22 20 17 14 12 12 13 13 13 13 13 14 14 14 13 13 13 12 12 11 11 10 10 10 10 10 10 10 9 8 7 13 23 35 45 45
11 12 12 13 13 14 15 16 16 16 17 18 19 20 21 22 22 23 23 23 23 24 24 24 25 24 24 23 22 22 21 21 22 22 22 20 16 14 13 12 12 12 12 13 14 14 14 14 13 13 12 11 11 10 10 10 10 10 10 10 11 10 9 8 13 22 33 43 44
11 12 12 13 14 14 15 15 16 16 17 18 19 20 21 22 22 22 22 23 23 23 24 24 25 25 25 25 24 23 22 21 22 22 22 22 19 17 14 13 12 12 11 12 14 15 15 14 14 13 12 11 11 11 10 10 9 9 10 11 11 10 9 8 12 20 30 39 41
12 13 13 14 14 15 15 16 16 16 16 17 18 19 20 21 22 22 22 22 22 22 23 24 24 25 26 26 25 24 23 22 22 22 22 23 21 19 17 14 13 11 11 11 13 14 15 15 14 13 12 11 11 11 10 10 9 9 10 11 11 10 9 8 10 16 25 34 36
14 15 15 15 16 16 16 16 16 16 16 17 17 18 19 20 21 21 21 21 21 22 22 23 24 25 26 27 26 26 24 23 22 22 22 23 22 21 19 17 14 12 10 10 11 13 15 15 15 14 12 11 11 11 10 10 9 9 10 11 12 11 10 9 9 13 19 27 30
16 16 16 17 17 17 17 17 16 16 16 16 17 18 18 19 20 20 20 20 20 20 21 21 22 24 25 26 27 26 26 24 23 23 22 23 23 22 21 19 17 14 11 9 10 12 14 15 15 14 13 11 11 10 10 9 9 9 10 11 12 12 11 9 8 10 14 20 23
18 18 18 18 18 18 17 17 17 16 16 16 16 17 18 18 19 19 20 20 20 20 20 20 21 23 24 25 26 27 26 25 24 23 22 22 23 23 22 21 19 16 13 10 9 10 12 15 16 15 14 12 11 10 10 9 8 8 9 11 13 13 12 10 8 7 10 14 18
19 19 18 18 18 18 18 17 17 17 16 16 16 16 17 17 18 18 19 19 19 19 19 19 20 21 23 24 26 26 26 26 25 24 23 22 22 22 22 21 20 18 15 11 9 9 11 15 16 16 15 13 11 10 9 9 8 8 8 10 12 14 14 11 8 6 7 9 14
19 19 19 19 18 18 18 17 17 17 16 16 16 16 16 16 17 17 18 18 19 19 19 18 19 20 21 23 25 26 26 26 26 25 24 22 22 22 22 21 20 19 16 13 10 9 10 14 16 17 16 14 12 10 9 8 8 7 8 9 12 14 14 13 10 7 6 6 10
19 20 20 19 19 18 18 18 17 17 16 16 16 16 16 16 16 16 17 18 18 18 18 18 18 19 20 22 23 25 26 26 26 25 24 23 23 23 22 22 21 19 18 14 11 9 9 13 16 17 16 15 13 10 9 8 8 7 8 9 11 13 15 14 11 8 6 5 7
20 21 21 20 20 20 19 18 18 17 17 16 16 16 15 15 15 16 16 17 17 18 18 18 18 19 19 20 22 23 24 25 26 25 25 24 24 24 23 23 22 20 18 16 12 9 9 11 14 16 16 16 14 11 9 8 7 8 8 9 11 13 15 16 14 11 8 6 5
21 22 22 22 22 21 20 20 19 18 17 16 16 16 15 15 15 15 15 16 16 17 18 18 18 18 19 19 20 22 23 24 25 25 25 25 25 25 25 24 23 22 20 18 14 10 9 10 12 14 15 16 15 12 10 8 7 8 8 9 11 13 14 16 15 13 11 8 6
21 22 22 22 23 22 22 21 20 19 18 17 17 16 16 15 15 15 15 15 16 16 17 18 18 18 18 18 20 21 22 23 24 24 24 24 25 25 25 25 24 23 22 19 16 12 10 9 11 13 14 16 16 14 11 8 7 7 8 10 11 12 14 16 16 15 13 10 8
19 20 21 22 22 22 22 22 21 20 19 19 18 17 16 16 15 15 15 15 15 15 16 17 17 18 18 18 19 20 21 22 23 24 24 24 24 24 25 26 26 25 24 21 18 14 11 9 10 12 13 15 16 14 12 8 7 7 8 10 11 12 14 15 16 15 14 12 10
17 18 19 20 21 21 22 22 22 21 20 20 19 18 18 17 16 16 15 15 15 15 15 16 17 17 18 18 18 19 20 21 22 23 24 24 24 24 24 25 26 26 25 23 20 16 13 10 10 10 12 13 15 15 13 9 7 6 7 9 11 12 14 15 15 15 14 13 10
Height
5529 5527 5525 5522 5521 5518 5516 5515 5513 5511 5509 5507 5506 5504 5503 5501 5500 5498 5497 5496 5495 5494 5493 5492 5491 5491 5490 5490 5489 5489 5489 5488 5488 5489 5489 5489 5489 5490 5490 5490 5491 5491 5492 5492 5493 5494 5495 5496 5497 5499 5500 5501 5501 5502 5502 5503 5504 5506 5506 5508 5509 5511 5513 5515 5517 5519 5521 5523 5526
5525 5523 5521 5519 5517 5516 5513 5512 5510 5508 5506 5505 5503 5502 5500 5499 5497 5496 5495 5494 5493 5492 5491 5491 5490 5489 5488 5488 5487 5487 5486 5486 5486 5486 5486 5486 5486 5487 5487 5487 5487 5488 5489 5489 5490 5491 5492 5493 5494 5495 5496 5496 5497 5497 5498 5498 5499 5501 5502 5503 5504 5505 5507 5509 5510 5512 5513 5516 5518
5521 5520 5518 5516 5514 5512 5511 5509 5507 5505 5504 5502 5501 5499 5498 5496 5495 5494 5492 5491 5490 5489 5489 5488 5487 5487 5486 5486 5485 5485 5484 5484 5484 5484 5484 5484 5484 5484 5484 5484 5485 5485 5485 5486 5487 5487 5488 5489 5490 5491 5491 5492 5493 5493 5493 5494 5495 5496 5497 5498 5499 5500 5501 5503 5504 5505 5507 5509 5511
5518 5516 5514 5512 5511 5509 5507 5505 5504 5502 5501 5499 5498 5496 5495 5494 5492 5491 5490 5489 5488 5487 5486 5485 5485 5484 5484 5483 5482 5482 5482 5482 5481 5481 5481 5481 5481 5481 5481 5481 5481 5482 5482 5483 5483 5484 5485 5486 5486 5487 5488 5488 5489 5489 5489 5490 5491 5491 5492 5493 5494 5495 5496 5497 5498 5500 5501 5503 5505
5514 5512 5510 5508 5506 5505 5503 5502 5500 5499 5497 5496 5495 5493 5492 5491 5490 5488 5487 5486 5485 5484 5483 5482 5482 5481 5481 5480 5480 5479 5479 5479 5479 5479 5479 5479 5478 5478 5478 5478 5478 5479 5479 5480 5480 5481 5481 5482 5483 5483 5484 5484 5485 5485 5485 5486 5486 5487 5488 5488 5489 5491 5491 5492 5493 5495 5496 5498 5499
5511 5508 5506 5504 5503 5501 5499 5498 5496 5495 5493 5492 5491 5490 5489 5488 5486 5485 5484 5483 5482 5481 5481 5480 5479 5478 5478 5477 5477 5476 5476 5476 5476 5476 5476 5476 5476 5476 5476 5476 5476 5476 5476 5476 5477 5477 5478 5478 5479 5480 5480 5481 5481 5481 5482 5482 5483 5483 5484 5485 5485 5486 5486 5487 5488 5490 5491 5492 5493
5506 5504 5502 5500 5498 5497 5495 5494 5492 5491 5490 5488 5487 5486 5485 5484 5483 5482 5481 5480 5479 5478 5477 5476 5476 5475 5475 5474 5474 5473 5473 5473 5472 5472 5472 5472 5472 5472 5472 5472 5472 5473 5473 5473 5473 5474 5474 5475 5475 5476 5476 5477 5477 5478 5478 5479 5479 5480 5481 5481 5481 5482 5482 5483 5484 5485 5486 5487 5488
5502 5500 5498 5496 5494 5492 5491 5489 5488 5487 5486 5484 5483 5482 5481 5480 5479 5478 5477 5476 5475 5474 5474 5473 5472 5472 5471 5471 5471 5470 5470 5470 5469 5469 5469 5469 5469 5469 5469 5469 5469 5469 5469 5470 5470 5470 5471 5471 5472 5472 5473 5473 5474 5474 5475 5475 5476 5476 5477 5477 5477 5478 5478 5479 5479 5480 5481 5481 5482
5498 5496 5494 5491 5490 5488 5486 5485 5483 5482 5481 5480 5479 5477 5476 5476 5475 5474 5473 5472 5471 5471 5470 5469 5469 5468 5468 5467 5467 5466 5466 5466 5466 5466 5465 5465 5465 5465 5466 5466 5466 5466 5466 5466 5466 5467 5467 5468 5468 5469 5469 5470 5470 5471 5471 5471 5472 5472 5473 5473 5474 5474 5474 5474 5475 5475 5476 5476 5477
5493 5491 5489 5487 5485 5483 5481 5480 5478 5477 5476 5475 5474 5473 5472 5471 5470 5470 5469 5468 5467 5466 5466 5465 5465 5464 5464 5464 5463 5463 5462 5462 5462 5462 5461 5461 5461 5462 5462 5462 5462 5462 5462 5462 5463 5463 5464 5464 5465 5465 5465 5466 5466 5467 5467 5468 5468 5469 5469 5469 5470 5470 5470 5470 5470 5471 5471 5471 5472
5489 5486 5484 5482 5481 5479 5477 5475 5474 5472 5471 5470 5469 5468 5467 5466 5466 5465 5464 5464 5463 5462 5461 5461 5461 5460 5460 5460 5459 5459 5458 5458 5458 5458 5457 5457 5458 5458 5458 5458 5458 5458 5459 5459 5459 5459 5460 5460 5461 5461 5461 5462 5462 5463 5463 5464 5464 5465 5465 5465 5466 5466 5466 5466 5466 5466 5466 5466 5467
5484 5482 5480 5478 5476 5474 5472 5470 5469 5467 5466 5465 5464 5463 5462 5461 5461 5460 5460 5459 5458 5458 5457 5456 5456 5456 5456 5455 5455 5455 5454 5454 5454 5454 5453 5453 5453 5454 5454 5454 5454 5455 5455 5455 5455 5456 5456 5456 5457 5457 5458 5458 5458 5459 5459 5460 5460 5461 5461 5461 5461 5462 5462 5461 5461 5461 5461 5462 5462
5479 5477 5475 5473 5471 5469 5467 5466 5464 5462 5461 5460 5458 5458 5457 5456 5456 5455 5454 5454 5453 5453 5452 5452 5451 5451 5451 5451 5450 5450 5450 5449 5449 5449 5449 5449 5449 5449 5450 5450 5450 5450 5451 5451 5451 5451 5452 5452 5453 5453 5454 5454 5454 5455 5455 5456 5456 5456 5457 5457 5457 5458 5458 5458 5457 5457 5457 5457 5457
5475 5473 5471 5468 5466 5464 5462 5461 5459 5457 5456 5455 5453 5452 5451 5451 5450 5449 5449 5448 5448 5447 5447 5447 5446 5446 5446 5446 5445 5445 5445 5445 5445 5445 5445 5445 5445 5445 5445 5445 5446 5446 5446 5447 5447 5447 5448 5448 5449 5449 5450 5450 5450 5451 5451 5451 5451 5452 5452 5453 5453 5454 5454 5454 5453 5453 5453 5453 5453
5471 5469 5466 5464 5462 5460 5458 5456 5454 5453 5451 5450 5448 5447 5446 5445 5444 5444 5443 5443 5442 5442 5442 5441 5441 5441 5441 5440 5440 5440 5440 5440 5440 5440 5440 5440 5440 5441 5441 5441 5441 5441 5442 5442 5443 5443 5443 5444 5444 5445 5445 5446 5446 5446 5447 5447 5447 5448 5448 5449 5449 5450 5450 5449 5449 5449 5448 5448 5449
5468 5466 5463 5461 5458 5456 5454 5452 5450 5448 5446 5445 5443 5442 5441 5440 5439 5438 5438 5437 5437 5436 5436 5436 5436 5435 5435 5435 5435 5434 5434 5434 5435 5435 5435 5435 5435 5436 5436 5436 5436 5437 5437 5438 5438 5439 5439 5439 5440 5440 5441 5441 5442 5442 5442 5443 5443 5444 5444 5445 5445 5445 5446 5445 5445 5445 5444 5444 5444
5465 5462 5460 5457 5455 5452 5450 5448 5446 5444 5442 5440 5439 5437 5436 5435 5434 5433 5432 5431 5431 5431 5431 5430 5430 5430 5430 5429 5429 5429 5429 5429 5429 5429 5430 5430 5430 5431 5431 5431 5431 5432 5432 5433 5434 5434 5434 5435 5435 5436 5436 5437 5437 5438 5438 5438 5439 5439 5440 5440 5441 5441 5441 5441 5441 5441 5440 5440 5440
5462 5460 5457 5454 5451 5449 5447 5444 5442 5440 5438 5436 5434 5432 5431 5430 5428 5427 5426 5426 5426 5425 5425 5425 5425 5424 5424 5424 5424 5424 5424 5424 5424 5424 5424 5425 5425 5426 5426 5426 5426 5427 5427 5428 5429 5429 5430 5430 5431 5431 5432 5432 5433 5433 5434 5434 5435 5435 5436 5436 5437 5437 5437 5437 5437 5436 5436 5436 5436
5460 5457 5454 5451 5448 5446 5443 5441 5438 5436 5434 5432 5430 5428 5426 5425 5424 5422 5421 5421 5420 5420 5420 5419 5419 5419 5418 5418 5418 5418 5418 5418 5418 5418 5419 5419 5420 5421 5421 5421 5421 5421 5422 5423 5424 5425 5425 5426 5426 5426 5427 5428 5428 5429 5429 5430 5430 5431 5431 5432 5433 5433 5433 5433 5433 5433 5432 5432 5432
5457 5454 5451 5448 5445 5442 5440 5437 5435 5432 5430 5428 5426 5424 5422 5421 5419 5417 5416 5416 5415 5414 5414 5414 5414 5414 5413 5413 5412 5412 5412 5412 5412 5412 5413 5414 5415 5415 5415 5415 5416 5416 5416 5418 5419 5420 5421 5421 5421 5422 5422 5423 5424 5424 5425 5426 5426 5427 5427 5428 5429 5429 5430 5430 5429 5429 5429 5429 5429
5454 5451 5448 5445 5442 5439 5436 5434 5431 5429 5426 5424 5422 5420 5418 5416 5414 5413 5411 5411 5410 5409 5409 5409 5408 5408 5408 5408 5407 5407 5407 5406 5407 5407 5408 5408 5409 5410 5410 5410 5410 5410 5411 5412 5414 5415 5416 5416 5416 5417 5418 5419 5419 5420 5421 5421 5422 5422 5423 5424 5425 5425 5426 5426 5426 5425 5425 5425 5425
5451 5448 5445 5442 5439 5436 5433 5430 5427 5425 5422 5420 5418 5416 5414 5412 5410 5408 5407 5406 5405 5404 5404 5403 5403 5403 5403 5402 5402 5402 5401 5401 5401 5401 5402 5403 5404 5404 5404 5404 5404 5405 5406 5407 5409 5411 5411 5411 5412 5412 5413 5414 5415 5416 5416 5417 5418 5418 5419 5420 5421 5421 5422 5422 5422 5422 5421 5421 5422
5448 5445 5442 5439 5436 5433 5430 5427 5424 5421 5419 5416 5414 5412 5410 5407 5406 5404 5402 5401 5400 5399 5398 5398 5398 5397 5397 5397 5397 5396 5396 5396 5396 5396 5397 5398 5398 5398 5398 5398 5398 5399 5401 5402 5404 5406 5407 5407 5408 5408 5409 5410 5411 5411 5412 5413 5413 5414 5415 5416 5417 5417 5418 5418 5418 5418 5418 5418 5419
5446 5442 5439 5436 5432 5429 5426 5423 5421 5418 5415 5412 5410 5408 5405 5403 5401 5400 5398 5396 5395 5394 5393 5393 5392 5392 5392 5392 5391 5391 5391 5391 5391 5391 5391 5392 5393 5393 5392 5393 5393 5394 5396 5397 5400 5402 5403 5402 5403 5404 5405 5406 5406 5407 5408 5409 5410 5411 5411 5412 5413 5414 5414 5415 5415 5415 5415 5415 5416
5443 5439 5436 5432 5429 5426 5423 5420 5417 5414 5411 5408 5406 5403 5401 5399 5397 5395 5394 5392 5391 5390 5389 5388 5387 5387 5387 5386 5386 5386 5386 5386 5386 5386 5386 5387 5387 5387 5387 5387 5388 5389 5391 5392 5396 5397 5397 5398 5400 5401 5401 5402 5403 5404 5404 5405 5406 5407 5408 5408 5409 5410 5411 5411 5411 5411 5411 5411 5412
5440 5436 5433 5429 5426 5423 5420 5416 5413 5411 5408 5405 5402 5400 5397 5395 5393 5391 5389 5388 5386 5385 5384 5383 5383 5382 5382 5381 5381 5381 5381 5380 5380 5381 5381 5381 5382 5382 5381 5382 5383 5385 5386 5387 5391 5392 5391 5394 5395 5396 5397 5398 5399 5400 5401 5401 5402 5403 5404 5405 5406 5406 5407 5407 5408 5408 5408 5408 5409
5437 5433 5430 5426 5423 5419 5416 5413 5410 5407 5404 5401 5399 5396 5393 5391 5389 5387 5385 5383 5382 5381 5380 5378 5378 5377 5377 5377 5376 5376 5376 5375 5375 5376 5376 5376 5376 5376 5376 5376 5378 5380 5381 5382 5386 5387 5387 5390 5391 5392 5393 5394 5395 5396 5397 5398 5399 5400 5400 5401 5402 5402 5403 5404 5404 5405 5405 5405 5407
5434 5430 5427 5423 5420 5416 5413 5410 5407 5404 5401 5398 5395 5392 5390 5387 5385 5383 5381 5379 5378 5376 5375 5374 5373 5373 5372 5372 5372 5371 5371 5371 5371 5371 5371 5371 5372 5371 5371 5372 5373 5375 5376 5378 5380 5382 5384 5385 5386 5388 5389 5390 5391 5392 5393 5394 5395 5396 5397 5398 5398 5399 5400 5400 5401 5401 5402 5403 5404
5431 5427 5424 5420 5416 5413 5410 5406 5403 5401 5397 5395 5392 5389 5386 5384 5381 5379 5377 5376 5374 5372 5371 5370 5369 5368 5368 5368 5367 5367 5366 5366 5366 5366 5366 5367 5367 5367 5367 5367 5368 5370 5372 5373 5374 5378 5381 5381 5382 5384 5385 5386 5387 5388 5389 5390 5391 5392 5393 5394 5395 5396 5396 5397 5398 5398 5399 5400 5402
5428 5424 5420 5417 5413 5410 5406 5403 5400 5397 5394 5391 5389 5386 5383 5381 5378 5376 5374 5372 5370 5368 5367 5366 5365 5364 5364 5363 5363 5362 5362 5362 5361 5362 5362 5362 5362 5362 5362 5363 5364 5366 5367 5369 5370 5373 5376 5377 5378 5380 5381 5382 5383 5384 5385 5386 5387 5389 5390 5391 5392 5393 5393 5394 5395 5396 5396 5397 5399
5425 5421 5417 5413 5410 5406 5403 5400 5397 5394 5391 5388 5386 5383 5381 5378 5375 5373 5371 5369 5366 5365 5363 5362 5361 5360 5360 5359 5359 5358 5358 5357 5357 5358 5358 5358 5358 5358 5358 5359 5360 5361 5363 5365 5366 5368 5370 5374 5375 5375 5376 5378 5380 5381 5382 5383 5384 5385 5386 5387 5388 5389 5390 5391 5392 5393 5394 5395 5396
5421 5417 5414 5411 5407 5403 5400 5397 5394 5391 5388 5385 5383 5380 5378 5375 5372 5370 5367 5365 5363 5361 5360 5359 5357 5356 5356 5355 5355 5354 5354 5353 5353 5353 5354 5354 5354 5354 5354 5355 5355 5356 5358 5360 5362 5364 5366 5370 5370 5371 5372 5375 5376 5377 5378 5379 5380 5381 5383 5384 5385 5386 5387 5388 5389 5390 5391 5392 5393
5418 5415 5411 5407 5404 5401 5397 5394 5391 5388 5385 5382 5380 5377 5375 5372 5370 5367 5365 5362 5360 5358 5356 5355 5354 5353 5352 5352 5351 5350 5350 5349 5349 5349 5350 5350 5350 5350 5350 5350 5351 5352 5354 5356 5358 5360 5362 5365 5366 5366 5368 5371 5373 5374 5374 5376 5377 5378 5379 5380 5381 5383 5384 5385 5386 5387 5388 5389 5390
5416 5412 5408 5405 5401 5398 5394 5391 5388 5385 5382 5380 5377 5374 5372 5369 5367 5365 5362 5360 5358 5356 5353 5352 5351 5350 5349 5348 5348 5347 5346 5346 5345 5345 5345 5346 5346 5346 5346 5346 5347 5348 5350 5352 5354 5356 5358 5360 5361 5362 5365 5368 5369 5370 5371 5372 5373 5375 5376 5377 5378 5379 5381 5382 5383 5384 5385 5386 5387
5413 5409 5406 5402 5399 5395 5392 5388 5385 5382 5380 5377 5374 5371 5369 5367 5364 5362 5360 5357 5355 5353 5351 5349 5347 5346 5345 5345 5344 5344 5343 5342 5341 5341 5341 5342 5342 5342 5342 5342 5343 5344 5346 5348 5350 5352 5353 5355 5356 5358 5361 5364 5365 5366 5367 5369 5370 5371 5372 5373 5375 5376 5377 5378 5379 5380 5381 5383 5384
5410 5407 5403 5400 5396 5392 5389 5386 5383 5380 5377 5374 5371 5369 5366 5364 5362 5360 5357 5355 5353 5351 5349 5346 5345 5343 5342 5341 5341 5340 5340 5339 5338 5338 5338 5338 5338 5339 5339 5339 5339 5340 5342 5344 5346 5347 5349 5351 5352 5354 5356 5359 5361 5362 5364 5365 5366 5367 5368 5369 5371 5372 5373 5375 5376 5377 5378 5379 5381
5408 5404 5401 5397 5393 5390 5386 5383 5380 5377 5374 5371 5369 5366 5364 5361 5359 5357 5355 5353 5351 5349 5346 5344 5342 5341 5339 5338 5337 5337 5336 5336 5335 5335 5335 5335 5335 5335 5335 5335 5335 5336 5338 5340 5342 5343 5345 5346 5348 5349 5351 5355 5356 5358 5360 5361 5362 5363 5364 5366 5367 5368 5369 5371 5372 5373 5375 5377 5378
5405 5401 5398 5395 5391 5387 5384 5381 5377 5375 5372 5369 5366 5364 5361 5359 5356 5354 5352 5350 5348 5346 5344 5342 5340 5338 5337 5335 5334 5333 5333 5332 5332 5331 5331 5331 5331 5332 5332 5332 5332 5333 5334 5336 5338 5339 5341 5343 5344 5345 5346 5350 5352 5354 5355 5357 5358 5359 5360 5361 5363 5364 5365 5366 5367 5369 5371 5374 5376
5403 5399 5396 5392 5389 5385 5381 5378 5375 5372 5369 5366 5364 5361 5359 5356 5354 5351 5349 5347 5345 5343 5341 5340 5338 5336 5334 5333 5331 5331 5330 5329 5329 5328 5328 5328 5328 5328 5328 5328 5329 5330 5331 5332 5334 5336 5337 5340 5341 5341 5342 5345 5347 5349 5351 5353 5354 5355 5356 5357 5359 5360 5361 5361 5363 5365 5367 5370 5372
5401 5397 5393 5390 5386 5383 5379 5376 5373 5369 5366 5364 5361 5359 5356 5353 5351 5349 5346 5344 5342 5341 5339 5337 5335 5333 5332 5331 5329 5328 5327 5326 5326 5325 5325 5325 5325 5325 5325 5325 5326 5326 5327 5329 5330 5332 5334 5336 5336 5336 5337 5340 5342 5345 5346 5348 5350 5352 5353 5354 5355 5356 5356 5358 5359 5361 5363 5365 5367
5399 5395 5391 5388 5384 5381 5377 5374 5371 5367 5364 5361 5358 5356 5354 5351 5348 5346 5344 5341 5339 5337 5336 5334 5332 5331 5329 5328 5326 5325 5324 5323 5322 5322 5322 5321 5321 5321 5321 5321 5322 5323 5324 5325 5326 5328 5330 5332 5332 5332 5333 5336 5338 5340 5342 5344 5346 5348 5349 5350 5351 5352 5353 5354 5355 5357 5359 5361 5363